Milwaukee, WI

8:44 AM CDT on March 27, 2017 (GMT -0500)
Gen Mitchell International

Weather History for KMKE - December, 2012

Change the Weather History Date:

Monday, December 31, 2012

  Actual Average Record
Temperature  
Mean Temperature 24 °F 23 °F  
Max Temperature 33 °F 30 °F 59 °F (1875)
Min Temperature 14 °F 17 °F -15 °F (1963)
Degree Days  
Heating Degree Days 41 42  
Month to date heating degree days 957 1194  
Since 1 July heating degree days 2329 2560  
Cooling Degree Days 0 0  
Month to date cooling degree days 0 0  
Year to date cooling degree days 1041 641  
Moisture  
Dew Point 16 °F    
Average Humidity 71    
Maximum Humidity 81    
Minimum Humidity 61    
Precipitation  
Precipitation 0.00 in 0.06 in 1.01 in (1978)
Month to date precipitation 3.87 2.04  
Year to date precipitation 29.29 34.76  
Snow  
Snow 0.00 in 0.40 in 11.10 in (1978)
Month to date snowfall 6.9 10.6  
Since 1 July snowfall 6.9 13.3  
Snow Depth 2.00 in    
Sea Level Pressure  
Sea Level Pressure 30.06 in    
Wind  
Wind Speed 10 mph (WNW)    
Max Wind Speed 20 mph    
Max Gust Speed 25 mph    
Visibility 9 miles    
Events      
T = Trace of Precipitation, MM = Missing Value Source: NWS Daily Summary

Daily Weather History Graph

Daily Weather History Graph

Search for Another Location

Airport or City:

Trip Planner

Search our weather history database for the weather conditions in past years. The results will help you decide how hot, cold, wet, or windy it might be!

Date:

Astronomy

Dec. 31, 2012 Rise Set
Actual Time 7:22 AM CST 4:27 PM CST
Civil Twilight 6:50 AM CST 4:59 PM CST
Nautical Twilight 6:14 AM CST 5:35 PM CST
Astronomical Twilight 5:40 AM CST 6:09 PM CST
Moon 8:03 PM CST (12/31) 8:59 AM CST (12/31)
Length of Visible Light 10h 08m
Length of Day
9h 04m
Waning Gibbous, 90% of the Moon is Illuminated
Dec 31
Waning Gibbous
Jan 4
Last Quarter
Jan 11
New
Jan 18
First Quarter
Jan 26
Full

Hourly Weather History & Observations

Time (CST) Temp. Windchill Dew Point Humidity Pressure Visibility Wind Dir Wind Speed Gust Speed Precip Events Conditions
12:52 AM 32.0 °F 20.5 °F 23.0 °F 69% 30.00 in 10.0 mi SW 18.4 mph - N/A   Mostly Cloudy
1:52 AM 32.0 °F 22.5 °F 23.0 °F 69% 29.99 in 10.0 mi SW 12.7 mph - N/A   Scattered Clouds
2:52 AM 30.9 °F 21.7 °F 23.0 °F 72% 29.97 in 10.0 mi SW 11.5 mph - N/A   Partly Cloudy
3:52 AM 30.0 °F 21.1 °F 21.9 °F 72% 29.97 in 10.0 mi SW 10.4 mph - N/A   Scattered Clouds
4:52 AM 33.1 °F 22.6 °F 23.0 °F 66% 29.98 in 10.0 mi WSW 16.1 mph 20.7 mph N/A   Mostly Cloudy
5:52 AM 33.1 °F 26.9 °F 23.0 °F 66% 29.99 in 10.0 mi West 6.9 mph - N/A   Mostly Cloudy
6:52 AM 30.9 °F 23.5 °F 23.0 °F 72% 30.00 in 10.0 mi West 8.1 mph - N/A   Mostly Cloudy
7:52 AM 30.0 °F 23.2 °F 21.9 °F 72% 30.00 in 10.0 mi West 6.9 mph - N/A   Mostly Cloudy
8:52 AM 30.0 °F 22.4 °F 21.9 °F 72% 30.03 in 10.0 mi West 8.1 mph - N/A   Mostly Cloudy
9:52 AM 28.9 °F 19.8 °F 21.0 °F 72% 30.04 in 10.0 mi WNW 10.4 mph - N/A   Overcast
10:52 AM 28.9 °F 20.4 °F 19.9 °F 69% 30.04 in 10.0 mi NW 9.2 mph - N/A   Overcast
11:52 AM 26.1 °F 15.0 °F 19.0 °F 75% 30.03 in 9.0 mi NW 12.7 mph - N/A   Overcast
12:52 PM 25.0 °F 14.2 °F 18.0 °F 75% 30.03 in 7.0 mi WNW 11.5 mph - N/A   Overcast
1:52 PM 24.1 °F 11.5 °F 16.0 °F 71% 30.04 in 6.0 mi WNW 15.0 mph - N/A   Haze
2:52 PM 23.0 °F 12.4 °F 17.1 °F 78% 30.06 in 6.0 mi NW 10.4 mph - N/A   Haze
3:52 PM 21.9 °F 10.4 °F 15.1 °F 75% 30.08 in 7.0 mi WNW 11.5 mph - N/A   Overcast
4:52 PM 19.4 °F 7.9 °F 12.2 °F 74% 30.06 in 8.0 mi WNW 10.4 mph - N/A   Mostly Cloudy
5:52 PM 19.0 °F 8.2 °F 12.0 °F 74% 30.11 in 10.0 mi NW 9.2 mph - N/A   Partly Cloudy
6:52 PM 18.0 °F 7.7 °F 10.0 °F 71% 30.13 in 10.0 mi NW 8.1 mph - N/A   Clear
7:52 PM 18.0 °F 7.7 °F 10.0 °F 71% 30.14 in 10.0 mi NW 8.1 mph - N/A   Clear
8:52 PM 16.0 °F 3.6 °F 8.1 °F 71% 30.14 in 10.0 mi NW 10.4 mph - N/A   Clear
9:52 PM 15.1 °F 5.2 °F 6.1 °F 68% 30.14 in 10.0 mi NW 6.9 mph - N/A   Clear
10:52 PM 15.1 °F 4.2 °F 5.0 °F 64% 30.16 in 10.0 mi NNW 8.1 mph - N/A   Partly Cloudy
11:52 PM 14.0 °F 2.0 °F 5.0 °F 67% 30.17 in 10.0 mi NNW 9.2 mph - N/A   Scattered Clouds